• In Hungary
  • List of Countries
  • For 7 days
  • Water Temperature
  • Satellite Maps
  • Weather Map
  • News
  • Weather Widgets
  • user-avatar
    Login

    Hourly Weather Horodkivka

    Today, 20 October, Friday

    Time Temperature Precipitation Wind Pressure Humidity
    00:00 +12°C° 0 mm 2 mps 741 mmHg 89%
    01:00 +12°C° 0 mm 2 mps 741 mmHg 91%
    02:00 +10°C° 0 mm 2 mps 741 mmHg 93%
    03:00 +10°C° 0 mm 2 mps 741 mmHg 93%
    04:00 +10°C° 0 mm 2 mps 741 mmHg 92%
    05:00 +10°C° 0 mm 3 mps 741 mmHg 91%
    06:00 +10°C° 0 mm 3 mps 742 mmHg 89%
    07:00 +10°C° 0 mm 3 mps 742 mmHg 88%
    08:00 +10°C° 0 mm 3 mps 742 mmHg 85%
    09:00 +11°C° 0 mm 3 mps 742 mmHg 79%
    10:00 +13°C° 0 mm 3 mps 743 mmHg 73%
    11:00 +14°C° 0 mm 3 mps 743 mmHg 67%
    12:00 +16°C° 0 mm 3 mps 743 mmHg 65%
    13:00 +16°C° 0 mm 3 mps 743 mmHg 63%
    14:00 +17°C° 0 mm 3 mps 743 mmHg 61%
    15:00 +16°C° 0 mm 3 mps 743 mmHg 65%
    16:00 +13°C° 0 mm 3 mps 743 mmHg 69%
    17:00 +13°C° 0 mm 2 mps 743 mmHg 73%
    18:00 +13°C° 0 mm 2 mps 743 mmHg 75%
    19:00 +12°C° 0 mm 2 mps 743 mmHg 77%
    20:00 +10°C° 0 mm 2 mps 743 mmHg 79%
    21:00 +9°C° 0 mm 2 mps 743 mmHg 80%
    22:00 +9°C° 0 mm 2 mps 743 mmHg 80%
    23:00 +9°C° 0 mm 2 mps 743 mmHg 81%

    Tomorrow, 21 October, Saturday

    Time Temperature Precipitation Wind Pressure Humidity
    00:00 +8°C° 0 mm 2 mps 743 mmHg 82%
    01:00 +8°C° 0 mm 2 mps 743 mmHg 83%
    02:00 +8°C° 0 mm 2 mps 743 mmHg 83%
    03:00 +7°C° 0 mm 2 mps 743 mmHg 84%
    04:00 +8°C° 0 mm 1 mps 743 mmHg 85%
    05:00 +8°C° 0 mm 1 mps 742 mmHg 86%
    06:00 +7°C° 0 mm 2 mps 743 mmHg 84%
    07:00 +8°C° 0 mm 2 mps 743 mmHg 83%
    08:00 +8°C° 0 mm 2 mps 743 mmHg 81%
    09:00 +9°C° 0 mm 2 mps 742 mmHg 76%
    10:00 +12°C° 0 mm 2 mps 742 mmHg 71%
    11:00 +13°C° 0 mm 2 mps 742 mmHg 66%
    12:00 +14°C° 0 mm 2 mps 742 mmHg 64%
    13:00 +14°C° 0 mm 2 mps 741 mmHg 63%
    14:00 +15°C° 0 mm 2 mps 741 mmHg 61%
    15:00 +14°C° 0.1 mm 2 mps 741 mmHg 64%
    16:00 +14°C° 0.1 mm 2 mps 740 mmHg 68%
    17:00 +13°C° 0.1 mm 2 mps 740 mmHg 71%
    18:00 +13°C° 0.6 mm 2 mps 740 mmHg 74%
    19:00 +12°C° 0.6 mm 2 mps 740 mmHg 78%
    20:00 +12°C° 0.6 mm 2 mps 740 mmHg 82%
    21:00 +10°C° 0.5 mm 3 mps 740 mmHg 84%
    22:00 +10°C° 0.5 mm 3 mps 740 mmHg 86%
    23:00 +9°C° 0.5 mm 3 mps 740 mmHg 87%

    Day after tomorrow, 22 October, Sunday

    Time Temperature Precipitation Wind Pressure Humidity
    00:00 +8°C° 0.3 mm 4 mps 740 mmHg 87%
    01:00 +7°C° 0.3 mm 4 mps 740 mmHg 87%
    02:00 +6°C° 0.3 mm 5 mps 740 mmHg 87%
    03:00 +6°C° 0 mm 4 mps 740 mmHg 87%
    04:00 +5°C° 0 mm 4 mps 740 mmHg 86%
    05:00 +5°C° 0 mm 4 mps 740 mmHg 85%
    06:00 +5°C° 0 mm 4 mps 741 mmHg 84%
    07:00 +4°C° 0 mm 4 mps 741 mmHg 83%
    08:00 +4°C° 0 mm 4 mps 742 mmHg 82%
    09:00 +5°C° 0 mm 4 mps 742 mmHg 77%
    10:00 +6°C° 0 mm 4 mps 742 mmHg 71%
    11:00 +9°C° 0 mm 3 mps 743 mmHg 66%
    12:00 +9°C° 0 mm 3 mps 743 mmHg 64%
    13:00 +10°C° 0 mm 3 mps 743 mmHg 61%
    14:00 +10°C° 0 mm 3 mps 742 mmHg 59%
    15:00 +9°C° 0 mm 3 mps 742 mmHg 62%
    16:00 +8°C° 0 mm 3 mps 742 mmHg 66%
    17:00 +7°C° 0 mm 2 mps 742 mmHg 69%
    18:00 +7°C° 0 mm 2 mps 742 mmHg 71%
    19:00 +5°C° 0 mm 3 mps 743 mmHg 73%
    20:00 +4°C° 0 mm 3 mps 743 mmHg 74%
    21:00 +4°C° 0 mm 3 mps 743 mmHg 75%
    22:00 +4°C° 0 mm 3 mps 743 mmHg 75%
    23:00 +3°C° 0 mm 3 mps 743 mmHg 76%

    23 October, Monday

    Time Temperature Precipitation Wind Pressure Humidity
    00:00 +3°C° 0 mm 3 mps 742 mmHg 76%
    01:00 +3°C° 0 mm 3 mps 742 mmHg 76%
    02:00 +3°C° 0 mm 3 mps 742 mmHg 77%
    03:00 +2°C° 0 mm 3 mps 742 mmHg 77%
    04:00 +2°C° 0 mm 3 mps 741 mmHg 77%
    05:00 +2°C° 0 mm 3 mps 741 mmHg 78%
    06:00 +1°C° 0 mm 4 mps 741 mmHg 76%
    07:00 +3°C° 0 mm 4 mps 741 mmHg 75%
    08:00 +3°C° 0 mm 4 mps 741 mmHg 73%
    09:00 +5°C° 0 mm 5 mps 741 mmHg 69%
    10:00 +6°C° 0 mm 5 mps 740 mmHg 64%
    11:00 +8°C° 0 mm 5 mps 740 mmHg 60%
    12:00 +8°C° 0 mm 5 mps 740 mmHg 62%
    13:00 +8°C° 0 mm 5 mps 740 mmHg 64%
    14:00 +9°C° 0 mm 5 mps 739 mmHg 67%
    15:00 +8°C° 0 mm 5 mps 739 mmHg 69%
    16:00 +8°C° 0 mm 4 mps 739 mmHg 71%
    17:00 +8°C° 0 mm 4 mps 739 mmHg 74%
    18:00 +8°C° 0 mm 5 mps 739 mmHg 73%
    19:00 +7°C° 0 mm 5 mps 739 mmHg 73%
    20:00 +7°C° 0 mm 5 mps 739 mmHg 72%
    21:00 +7°C° 0.1 mm 5 mps 740 mmHg 70%
    22:00 +7°C° 0.1 mm 5 mps 740 mmHg 69%
    23:00 +5°C° 0.1 mm 6 mps 740 mmHg 67%

    24 October, Tuesday

    Time Temperature Precipitation Wind Pressure Humidity
    00:00 +6°C° 0.3 mm 5 mps 740 mmHg 67%
    01:00 +5°C° 0.3 mm 5 mps 740 mmHg 67%
    02:00 +5°C° 0.3 mm 5 mps 740 mmHg 67%
    03:00 +4°C° 0.2 mm 6 mps 741 mmHg 65%
    04:00 +4°C° 0.2 mm 6 mps 741 mmHg 64%
    05:00 +3°C° 0.2 mm 6 mps 741 mmHg 63%
    06:00 +3°C° 0.2 mm 6 mps 742 mmHg 63%
    07:00 +3°C° 0.2 mm 6 mps 742 mmHg 62%
    08:00 +3°C° 0.2 mm 6 mps 743 mmHg 62%
    09:00 +3°C° 0.1 mm 6 mps 743 mmHg 61%
    10:00 +4°C° 0.1 mm 6 mps 744 mmHg 59%
    11:00 +4°C° 0.1 mm 6 mps 744 mmHg 57%
    12:00 +5°C° 0 mm 6 mps 744 mmHg 56%
    13:00 +5°C° 0 mm 6 mps 745 mmHg 54%
    14:00 +5°C° 0 mm 6 mps 745 mmHg 53%
    15:00 +5°C° 0 mm 6 mps 745 mmHg 53%
    16:00 +4°C° 0 mm 6 mps 746 mmHg 52%
    17:00 +5°C° 0 mm 5 mps 746 mmHg 52%
    18:00 +5°C° 0 mm 5 mps 747 mmHg 52%
    19:00 +3°C° 0 mm 5 mps 747 mmHg 51%
    20:00 +3°C° 0 mm 5 mps 748 mmHg 51%
    21:00 +3°C° 0 mm 5 mps 748 mmHg 51%
    22:00 +3°C° 0 mm 5 mps 748 mmHg 52%
    23:00 +3°C° 0 mm 4 mps 749 mmHg 53%

    25 October, Wednesday

    Time Temperature Precipitation Wind Pressure Humidity
    00:00 +3°C° 0.1 mm 4 mps 749 mmHg 54%
    01:00 +3°C° 0.1 mm 4 mps 749 mmHg 55%
    02:00 +3°C° 0.1 mm 4 mps 750 mmHg 57%
    03:00 +3°C° 0.1 mm 4 mps 750 mmHg 58%
    04:00 +1°C° 0.1 mm 4 mps 750 mmHg 60%
    05:00 +1°C° 0.1 mm 4 mps 750 mmHg 61%
    06:00 +1°C° 0.1 mm 4 mps 750 mmHg 62%
    07:00 +1°C° 0.1 mm 4 mps 751 mmHg 63%
    08:00 +1°C° 0.1 mm 5 mps 751 mmHg 64%
    09:00 +1°C° 0 mm 5 mps 751 mmHg 64%
    10:00 +2°C° 0 mm 5 mps 752 mmHg 64%
    11:00 +2°C° 0 mm 5 mps 752 mmHg 64%
    12:00 +3°C° 0 mm 5 mps 752 mmHg 62%
    13:00 +4°C° 0 mm 4 mps 752 mmHg 61%
    14:00 +5°C° 0 mm 4 mps 752 mmHg 60%
    15:00 +4°C° 0 mm 4 mps 752 mmHg 63%
    16:00 +3°C° 0 mm 3 mps 752 mmHg 66%
    17:00 +2°C° 0 mm 3 mps 752 mmHg 70%
    18:00 +1°C° 0 mm 3 mps 752 mmHg 70%
    19:00 +1°C° 0 mm 3 mps 753 mmHg 71%
    20:00 0°C° 0 mm 3 mps 753 mmHg 72%
    21:00 0°C° 0 mm 3 mps 753 mmHg 73%
    22:00 -1°C° 0 mm 3 mps 753 mmHg 74%
    23:00 -1°C° 0 mm 2 mps 753 mmHg 76%
    Show more